Weather History for Columbia / Mount Pleasant, TN

Change the Weather History Date:

Thursday, March 14, 2013

  Actual Average (KBNA) Record (KBNA)
Temperature  
Mean Temperature 37 °F 49 °F  
Max Temperature 53 °F 60 °F 83 °F (1967)
Min Temperature 21 °F 39 °F 18 °F (1926)
Degree Days  
Heating Degree Days 28 16  
Month to date heating degree days 247  
Since 1 July heating degree days 3185  
Cooling Degree Days 0 0  
Month to date cooling degree days 0  
Year to date cooling degree days 0  
Moisture  
Dew Point 23 °F    
Average Humidity 60    
Maximum Humidity 100    
Minimum Humidity 28    
Precipitation  
Precipitation 0.00 in 0.14 in 1.75 in (1912)
Month to date precipitation 1.82  
Year to date precipitation 9.51  
Snow  
Snow 0.00 in 0.00 in 1.40 in (1999)
Month to date snowfall 0.5  
Since 1 July snowfall 5.9  
Snow Depth -    
Sea Level Pressure  
Sea Level Pressure 30.33 in    
Wind  
Wind Speed 1 mph (East)    
Max Wind Speed 9 mph    
Max Gust Speed -    
Visibility 10 miles    
Events      
T = Trace of Precipitation, MM = Missing Value Source: NWS Daily Summary

Daily Weather History Graph

Daily Weather History Graph

Search for Another Location

Airport:

Trip Planner

Search our weather history database for the weather conditions in past years. The results will help you decide how hot, cold, wet, or windy it might be!

Date:

Astronomy

Mar. 14, 2013 Rise Set
Actual Time 7:00 AM CDT 6:55 PM CDT
Civil Twilight 6:35 AM CDT 7:21 PM CDT
Nautical Twilight 6:05 AM CDT 7:50 PM CDT
Astronomical Twilight 5:35 AM CDT 8:20 PM CDT
Moon 8:21 AM CDT (3/14) 10:03 PM CDT (3/14)
Length of Visible Light 12h 45m
Length of Day
11h 55m
Waxing Crescent, 9% of the Moon is Illuminated
Mar 14
Waxing Crescent
Mar 19
First Quarter
Mar 27
Full
Apr 2
Last Quarter
Apr 10
New

Hourly Weather History & Observations

Time (CDT) Temp. Windchill Dew Point Humidity Pressure Visibility Wind Dir Wind Speed Gust Speed Precip Events Conditions
12:35 AM 30.2 °F - 21.2 °F 69% 30.39 in 10.0 mi Calm Calm - N/A   Clear
1:15 AM 28.4 °F - 21.2 °F 74% 30.39 in 10.0 mi Calm Calm - N/A   Clear
1:35 AM 26.6 °F - 21.2 °F 80% 30.39 in 10.0 mi Calm Calm - N/A   Clear
1:55 AM 26.6 °F - 24.8 °F 93% 30.39 in 10.0 mi Calm Calm - N/A   Clear
2:15 AM 26.6 °F - 24.8 °F 93% 30.39 in 10.0 mi Calm Calm - N/A   Clear
2:35 AM 26.6 °F - 23.0 °F 86% 30.38 in 10.0 mi Calm Calm - N/A   Clear
2:55 AM 24.8 °F - 23.0 °F 93% 30.38 in 10.0 mi Calm Calm - N/A   Clear
3:15 AM 26.6 °F - 24.8 °F 93% 30.39 in 10.0 mi Calm Calm - N/A   Clear
3:35 AM 24.8 °F - 24.8 °F 100% 30.39 in 10.0 mi Calm Calm - N/A   Clear
3:55 AM 24.8 °F - 24.8 °F 100% 30.38 in 10.0 mi Calm Calm - N/A   Clear
4:15 AM 24.8 °F - 24.8 °F 100% 30.39 in 10.0 mi Calm Calm - N/A   Clear
4:35 AM 23.0 °F - 23.0 °F 100% 30.38 in 10.0 mi Calm Calm - N/A   Clear
4:55 AM 23.0 °F - 23.0 °F 100% 30.38 in 10.0 mi Calm Calm - N/A   Clear
5:15 AM 21.2 °F - 21.2 °F 100% 30.39 in 10.0 mi Calm Calm - N/A   Clear
5:35 AM 23.0 °F - 23.0 °F 100% 30.39 in 10.0 mi Calm Calm - N/A   Clear
5:55 AM 23.0 °F - 23.0 °F 100% 30.39 in 10.0 mi Calm Calm - N/A   Clear
6:15 AM 21.2 °F - 21.2 °F 100% 30.39 in 10.0 mi Calm Calm - N/A   Clear
6:35 AM 23.0 °F - 23.0 °F 100% 30.39 in 10.0 mi Calm Calm - N/A   Clear
6:55 AM 23.0 °F - 23.0 °F 100% 30.40 in 10.0 mi Calm Calm - N/A   Clear
7:15 AM 23.0 °F - 23.0 °F 100% 30.39 in 10.0 mi Calm Calm - N/A   Clear
7:35 AM 24.8 °F - 24.8 °F 100% 30.40 in 10.0 mi Calm Calm - N/A   Clear
7:55 AM 24.8 °F - 24.8 °F 100% 30.41 in 9.0 mi Calm Calm - N/A   Clear
8:15 AM 26.6 °F - 26.6 °F 100% 30.41 in 10.0 mi Calm Calm - N/A   Clear
8:35 AM 28.4 °F - 28.4 °F 100% 30.42 in 0.5 mi Calm Calm - N/A   Unknown
8:55 AM 32.0 °F - 28.4 °F 87% 30.41 in 10.0 mi Calm Calm - N/A   Clear
9:15 AM 32.0 °F 26.4 °F 26.6 °F 80% 30.40 in 10.0 mi ESE 5.8 mph - N/A   Clear
9:35 AM 35.6 °F 30.7 °F 24.8 °F 65% 30.40 in 10.0 mi ENE 5.8 mph - N/A   Clear
9:55 AM 35.6 °F 28.6 °F 24.8 °F 65% 30.40 in 10.0 mi East 9.2 mph - N/A   Clear
10:15 AM 37.4 °F 32.8 °F 21.2 °F 52% 30.40 in 10.0 mi East 5.8 mph - N/A   Clear
10:35 AM 39.2 °F 33.6 °F 23.0 °F 52% 30.39 in 8.0 mi ENE 8.1 mph - N/A   Clear
10:55 AM 39.2 °F - 21.2 °F 49% 30.38 in 10.0 mi Calm Calm - N/A   Clear
11:15 AM 42.8 °F 41.1 °F 21.2 °F 42% 30.38 in 10.0 mi SSE 3.5 mph - N/A   Partly Cloudy
11:35 AM 42.8 °F 41.1 °F 21.2 °F 42% 30.39 in 10.0 mi WSW 3.5 mph - N/A   Scattered Clouds
11:55 AM 44.6 °F 43.1 °F 21.2 °F 39% 30.39 in 10.0 mi WSW 3.5 mph - N/A   Partly Cloudy
12:15 PM 44.6 °F - 19.4 °F 37% 30.38 in 10.0 mi Calm Calm - N/A   Clear
12:35 PM 44.6 °F - 21.2 °F 39% 30.37 in 10.0 mi Calm Calm - N/A   Partly Cloudy
12:55 PM 46.4 °F - 19.4 °F 34% 30.36 in 10.0 mi Calm Calm - N/A   Clear
1:15 PM 48.2 °F - 21.2 °F 34% 30.34 in 10.0 mi Calm Calm - N/A   Clear
1:35 PM 48.2 °F - 19.4 °F 32% 30.33 in 10.0 mi NW 3.5 mph - N/A   Clear
1:55 PM 48.2 °F - 19.4 °F 32% 30.33 in 10.0 mi Calm Calm - N/A   Clear
2:15 PM 48.2 °F - 19.4 °F 32% 30.32 in 10.0 mi Calm Calm - N/A   Clear
2:35 PM 51.8 °F - 19.4 °F 28% 30.31 in 10.0 mi Variable 4.6 mph - N/A   Clear
2:55 PM 53.6 °F - 21.2 °F 28% 30.29 in 10.0 mi Calm Calm - N/A   Clear
3:15 PM 53.6 °F - 21.2 °F 28% 30.29 in 10.0 mi Calm Calm - N/A   Scattered Clouds
3:35 PM 51.8 °F - 21.2 °F 30% 30.28 in 10.0 mi NE 3.5 mph - N/A   Mostly Cloudy
3:55 PM 51.8 °F - 21.2 °F 30% 30.29 in 10.0 mi NE 4.6 mph - N/A   Overcast
4:15 PM 51.8 °F - 21.2 °F 30% 30.28 in 10.0 mi ENE 3.5 mph - N/A   Overcast
4:35 PM 50.0 °F - 21.2 °F 32% 30.28 in 10.0 mi NE 4.6 mph - N/A   Overcast
4:55 PM 50.0 °F - 23.0 °F 35% 30.26 in 10.0 mi ENE 4.6 mph - N/A   Mostly Cloudy
5:15 PM 50.0 °F - 24.8 °F 37% 30.25 in 10.0 mi East 6.9 mph - N/A   Scattered Clouds
5:35 PM 48.2 °F - 24.8 °F 40% 30.24 in 10.0 mi East 4.6 mph - N/A   Mostly Cloudy
5:55 PM 48.2 °F - 24.8 °F 40% 30.24 in 10.0 mi East 4.6 mph - N/A   Mostly Cloudy
6:15 PM 48.2 °F - 23.0 °F 37% 30.23 in 10.0 mi ESE 4.6 mph - N/A   Overcast
6:35 PM 48.2 °F - 24.8 °F 40% 30.24 in 10.0 mi East 4.6 mph - N/A   Overcast
6:55 PM 46.4 °F 44.3 °F 24.8 °F 43% 30.23 in 10.0 mi East 4.6 mph - N/A   Overcast
7:15 PM 46.4 °F 42.9 °F 24.8 °F 43% 30.24 in 10.0 mi East 6.9 mph - N/A   Overcast
7:35 PM 46.4 °F 42.9 °F 21.2 °F 37% 30.23 in 10.0 mi East 6.9 mph - N/A   Overcast
7:55 PM 46.4 °F 43.5 °F 21.2 °F 37% 30.23 in 10.0 mi ESE 5.8 mph - N/A   Overcast
8:15 PM 46.4 °F 43.5 °F 21.2 °F 37% 30.24 in 10.0 mi East 5.8 mph - N/A   Overcast
8:35 PM 46.4 °F 45.2 °F 23.0 °F 40% 30.25 in 10.0 mi East 3.5 mph - N/A   Overcast
8:55 PM 46.4 °F - 21.2 °F 37% 30.24 in 10.0 mi Calm Calm - N/A   Overcast
9:15 PM 44.6 °F - 24.8 °F 46% 30.23 in 10.0 mi Calm Calm - N/A   Scattered Clouds
9:35 PM 44.6 °F 43.1 °F 24.8 °F 46% 30.22 in 10.0 mi South 3.5 mph - N/A   Clear
9:55 PM 44.6 °F 43.1 °F 24.8 °F 46% 30.22 in 10.0 mi South 3.5 mph - N/A   Clear
10:15 PM 42.8 °F - 24.8 °F 49% 30.21 in 10.0 mi Calm Calm - N/A   Clear
10:35 PM 44.6 °F 42.2 °F 23.0 °F 43% 30.20 in 10.0 mi South 4.6 mph - N/A   Clear
10:55 PM 44.6 °F - 23.0 °F 43% 30.20 in 10.0 mi Calm Calm - N/A   Clear
11:15 PM 42.8 °F - 24.8 °F 49% 30.20 in 10.0 mi Calm Calm - N/A   Clear
11:35 PM 42.8 °F - 24.8 °F 49% 30.20 in 10.0 mi Calm Calm - N/A   Clear
11:55 PM 42.8 °F - 24.8 °F 49% 30.20 in 10.0 mi Calm Calm - N/A   Clear